This is the latest recevied weather packets stored in our database for station/object KB5DPX. If no packets are shown the sender has not sent any weather packets the latest 10 day(s).
| Time | Temp. | Humidity | Pressure | Rain* | Wind** | Luminosity | Snow |
|---|---|---|---|---|---|---|---|
| 1777324372 | 21.11° C | 41% | 1008.1 hPa | 0 mm | - | 250 W/m² | - |
| 1777324056 | 21.67° C | 40% | 1008.2 hPa | 0 mm | - | 278 W/m² | - |
| 1777323769 | 21.67° C | 39% | 1008.2 hPa | 0 mm | - | 323 W/m² | - |
| 1777323464 | 21.67° C | 39% | 1008.2 hPa | 0 mm | - | 304 W/m² | - |
| 1777323177 | 21.67° C | 37% | 1008.5 hPa | 0 mm | - | 385 W/m² | - |
| 1777322857 | 22.22° C | 38% | 1008.5 hPa | 0 mm | - | 431 W/m² | - |
| 1777322569 | 22.22° C | 37% | 1008.5 hPa | 0 mm | - | 478 W/m² | - |
| 1777322269 | 22.22° C | 36% | 1008.6 hPa | 0 mm | - | 512 W/m² | - |
| 1777321953 | 22.22° C | 37% | 1008.6 hPa | 0 mm | - | 475 W/m² | - |
| 1777321678 | 22.22° C | 36% | 1008.7 hPa | 0 mm | - | 482 W/m² | - |
| 1777321361 | 22.22° C | 37% | 1008.9 hPa | 0 mm | - | 432 W/m² | - |
| 1777321075 | 22.22° C | 35% | 1009 hPa | 0 mm | - | 497 W/m² | - |
| 1777320758 | 22.22° C | 35% | 1009.3 hPa | 0 mm | - | 478 W/m² | - |
| 1777320470 | 22.22° C | 35% | 1009.5 hPa | 0 mm | - | 527 W/m² | - |
| 1777320154 | 22.22° C | 35% | 1009.6 hPa | 0 mm | - | 548 W/m² | - |
| 1777319875 | 22.22° C | 34% | 1009.7 hPa | 0 mm | - | 543 W/m² | - |
| 1777319576 | 22.78° C | 35% | 1009.9 hPa | 0 mm | - | 568 W/m² | - |
| 1777319279 | 22.78° C | 36% | 1010 hPa | 0 mm | - | 522 W/m² | - |
| 1777318961 | 22.22° C | 36% | 1010 hPa | 0 mm | - | 485 W/m² | - |
| 1777318672 | 22.22° C | 36% | 1010.3 hPa | 0 mm | - | 494 W/m² | - |
| 1777318355 | 22.22° C | 35% | 1010.5 hPa | 0 mm | - | 497 W/m² | - |
| 1777318079 | 21.67° C | 36% | 1010.6 hPa | 0 mm | - | 457 W/m² | - |
| 1777317773 | 22.22° C | 36% | 1010.6 hPa | 0 mm | - | 457 W/m² | - |
| 1777317476 | 22.22° C | 36% | 1010.7 hPa | 0 mm | - | 503 W/m² | - |
| 1777317177 | 22.22° C | 37% | 1010.8 hPa | 0 mm | - | 573 W/m² | - |
* Rain latest hour (hover to see other rain measurements)
** Current wind speed in m/s (hover to see current wind gust speed)